Flag for France Weather past 2 weeks in Marseille, France

Now
64 °F

Sunny.


Feels Like: 64 °F
Forecast: 56 / 67 °F
Wind: 7 mph from South

Location: Marseille / Marignane


UV Index: 0 (Low)

Visibility: 10 mi


Pressure: 29.89 "Hg

Humidity: 56%

Dew point: 48 °F

Location of MarseilleLocation

Historic Weather in Marseille

°F

Marseille temperature yesterday

Maximum temperature yesterday: 72 °F (at 3:00 PM)
Minimum temperature yesterday: 52 °F (at 6:30 AM)
Average temperature yesterday: 61 °F

Past Weeks' High & Low Weather Summary

 TemperatureHumidityPressure
High75 °F (Apr 13, 4:30 PM)94% (Apr 11, 1:30 AM)30.18 "Hg (Apr 11, 1:30 AM)
Low43 °F (Apr 16, 6:00 AM)23% (Apr 14, 7:30 PM)29.59 "Hg (Apr 19, 4:30 AM)
Average59 °F65%29.93 "Hg
* Reported Apr 9 8:00 PM — Apr 24 8:30 PM, Marseille, Weather by CustomWeather, © 2014

Note: Actual official high and low records may vary slightly from our data, if they occured in-between our weather recording intervals... More about our weather records

Advertising

Historic Weather Conditions — Data for Previous 24 hours

 ConditionsComfort  
Time TempWeatherWind HumidityBarometerVisibility
8:30 PM
Apr 24
64 °FSunny.8 mph56%29.89 "Hg10 mi
8:00 PM66 °FSunny.8 mph52%29.89 "Hg10 mi
7:30 PM70 °FSunny.8 mph46%29.89 "Hg10 mi
7:11 PM72 °FSunny.8 mph44%29.89 "Hg10 mi
6:30 PM73 °FSunny.7 mph38%29.92 "Hg10 mi
6:00 PM75 °FPassing clouds.7 mph34%29.89 "HgN/A
5:30 PM73 °FPartly sunny.7 mph38%29.92 "HgN/A
5:00 PM75 °FPartly sunny.8 mph39%29.92 "HgN/A
4:30 PM75 °FPartly sunny.10 mph41%29.92 "HgN/A
4:00 PM75 °FPartly sunny.9 mph41%29.92 "HgN/A
3:30 PM75 °FPartly sunny.5 mph44%29.95 "HgN/A
3:00 PM75 °FPartly sunny.6 mph44%29.95 "HgN/A
2:30 PM73 °FPartly sunny.5 mph50%29.95 "HgN/A
2:00 PM73 °FScattered clouds.3 mph50%29.98 "HgN/A
1:30 PM73 °FScattered clouds.2 mph50%29.98 "HgN/A
1:00 PM70 °FScattered clouds.6 mph57%29.98 "HgN/A
12:30 PM68 °FScattered clouds.8 mph64%29.98 "HgN/A
12:00 PM68 °FScattered clouds.8 mph64%30.01 "HgN/A
11:30 AM66 °FPassing clouds.7 mph64%30.01 "HgN/A
11:00 AM64 °FPassing clouds.6 mph68%30.01 "HgN/A
10:30 AM63 °FPassing clouds.5 mph73%30.01 "HgN/A
10:00 AM61 °FSunny.3 mph77%30.04 "Hg10 mi
9:30 AM59 °FSunny.2 mph77%30.04 "Hg10 mi
9:00 AM59 °FSunny.1 mph82%30.04 "Hg10 mi
8:30 AM57 °FSunny.1 mph88%30.01 "Hg10 mi
8:00 AM55 °FSunny.No wind88%30.01 "Hg10 mi
7:30 AM54 °FClear.No wind88%30.01 "Hg10 mi
7:00 AM52 °FClear.2 mph94%30.01 "Hg10 mi
6:30 AM52 °FClear.3 mph88%30.01 "Hg10 mi
6:00 AM50 °FClear.3 mph88%30.04 "Hg10 mi
5:30 AM50 °FClear.No wind94%30.04 "Hg10 mi
5:00 AM50 °FClear.5 mph94%30.04 "Hg10 mi
4:30 AM52 °FClear.6 mph88%30.04 "HgN/A
4:00 AM55 °FClear.2 mph88%30.04 "HgN/A
3:30 AM57 °FClear.3 mph82%30.04 "HgN/A
3:00 AM57 °FClear.7 mph88%30.04 "HgN/A
2:30 AM55 °FClear.No wind77%30.04 "HgN/A
2:00 AM55 °FClear.3 mph88%30.04 "HgN/A
1:30 AM54 °FClear.6 mph88%30.04 "HgN/A
1:00 AM55 °FClear.6 mph82%30.07 "Hg10 mi
12:30 AM59 °FClear.7 mph88%30.07 "Hg10 mi
12:00 AM59 °FClear.No wind77%30.07 "Hg10 mi
11:30 PM
Apr 23
59 °FClear.3 mph82%30.07 "Hg10 mi
11:00 PM59 °FClear.3 mph82%30.07 "Hg10 mi
10:30 PM59 °FClear.3 mph82%30.07 "Hg10 mi
10:00 PM61 °FClear.6 mph77%30.07 "Hg10 mi
9:30 PM61 °FPassing clouds.3 mph77%30.04 "HgN/A
9:00 PM63 °FPassing clouds.3 mph73%30.04 "HgN/A
Weather by CustomWeather, © 2014

See weather overview